TimePDT,TemperatureF,Dew PointF,Humidity,Sea Level PressureIn,VisibilityMPH,Wind Direction,Wind SpeedMPH,Gust SpeedMPH,PrecipitationIn,Events,Conditions,WindDirDegrees,DateUTC
12:52 AM,68.0,45.0,43,29.89,10.0,North,8.1,-,N/A,,Clear,350,2013-08-01 07:52:00
1:52 AM,68.0,46.0,45,29.88,10.0,NNW,8.1,-,N/A,,Clear,340,2013-08-01 08:52:00
2:52 AM,64.0,46.9,54,29.88,10.0,North,6.9,-,N/A,,Clear,10,2013-08-01 09:52:00
3:52 AM,62.1,46.9,58,29.87,10.0,North,6.9,-,N/A,,Clear,10,2013-08-01 10:52:00
4:52 AM,60.1,48.9,67,29.87,10.0,Calm,Calm,-,N/A,,Clear,0,2013-08-01 11:52:00
5:52 AM,63.0,46.0,54,29.88,10.0,South,4.6,-,N/A,,Clear,180,2013-08-01 12:52:00
6:52 AM,64.0,46.9,54,29.88,10.0,SSE,3.5,-,N/A,,Clear,160,2013-08-01 13:52:00
7:52 AM,70.0,46.0,42,29.87,10.0,Calm,Calm,-,N/A,,Clear,0,2013-08-01 14:52:00
8:52 AM,75.0,48.0,38,29.87,10.0,ESE,4.6,-,N/A,,Clear,120,2013-08-01 15:52:00
9:52 AM,78.1,51.1,39,29.88,10.0,SE,13.8,-,N/A,,Clear,140,2013-08-01 16:52:00
10:52 AM,73.0,48.9,42,29.89,10.0,ESE,12.7,-,N/A,,Clear,120,2013-08-01 17:52:00
11:52 AM,75.9,53.1,45,29.87,10.0,South,5.8,-,N/A,,Clear,170,2013-08-01 18:52:00
12:52 PM,78.1,53.1,42,29.86,10.0,South,5.8,-,N/A,,Clear,170,2013-08-01 19:52:00
1:52 PM,80.1,55.0,42,29.86,10.0,SE,11.5,-,N/A,,Clear,140,2013-08-01 20:52:00
2:52 PM,79.0,55.9,45,29.85,10.0,SE,16.1,20.7,N/A,,Clear,140,2013-08-01 21:52:00
3:52 PM,79.0,52.0,39,29.85,10.0,SSE,18.4,-,N/A,,Clear,150,2013-08-01 22:52:00
4:52 PM,79.0,54.0,42,29.84,10.0,SSE,15.0,-,N/A,,Clear,150,2013-08-01 23:52:00
5:52 PM,78.1,55.9,46,29.83,10.0,SE,11.5,-,N/A,,Mostly Cloudy,130,2013-08-02 00:52:00
6:52 PM,75.9,55.0,48,29.87,10.0,NNW,4.6,-,N/A,,Overcast,340,2013-08-02 01:52:00
7:52 PM,62.1,57.9,86,29.90,6.0,NNE,19.6,-,0.16,Rain,Light Rain,20,2013-08-02 02:52:00
8:52 PM,63.0,57.9,84,29.88,10.0,NE,16.1,-,0.02,Rain,Light Rain,40,2013-08-02 03:52:00
9:52 PM,64.0,57.0,78,29.89,10.0,WSW,6.9,-,0.00,Rain,Light Rain,240,2013-08-02 04:52:00
10:52 PM,64.9,57.0,75,29.91,10.0,South,5.8,-,0.02,Rain,Light Rain,180,2013-08-02 05:52:00
11:52 PM,64.0,59.0,84,29.91,10.0,Calm,Calm,-,0.01,,Overcast,0,2013-08-02 06:52:00